User: anonymous   Login
Location: Bangkok
(13.7500°N, 100.5170°E)
Time: 16:55:56
(UTC+07:00)
Language:

SPOT 1/Viking Rocket - Orbit

View from above orbital plane
View from above orbital plane
View from above satellite
View from above satellite

Ground track
Ground track

The orbit data is extracted from the following two-line orbital elements,

1 16615U 86019C   17114.84940785 +.00000069 +00000-0 +42247-4 0  9990
2 16615 098.6155 182.4897 0011528 196.8715 293.6452 14.31651006631860
Epoch (UTC): 24 April 2017 20:23:08
Eccentricity: 0.0011528
inclination: 98.6155°
perigee height: 778 km
apogee height: 794 km
right ascension of ascending node: 182.4897°
argument of perigee: 196.8715°
revolutions per day: 14.31651006
mean anomaly at epoch: 293.6452°
orbit number at epoch: 63186

The dashed part of the orbit path shows where the satellite is in the earth's shadow,  

DLR